Location: Casteau
(50.5142°N, 4.0161°E)
Time: 23:30:37
(UTC+00:00)

S-56A Canister/Altair - Pass Details

Date: 06 August 2021
Orbit: 632 x 2500 km, 38.9° (Epoch: 19 September)

Event Time Altitude Azimuth Distance (km) Brightness Sun altitude
Rises 18:32:51 0° 278° (W) 5,990 14.2 6.0°
Reaches altitude 10° 18:37:15 10° 269° (W) 5,097 13.3 5.4°
Maximum altitude 18:49:23 32° 215° (SW) 3,644 11.2 3.6°
Drops below altitude 10° 19:00:45 10° 161° (SSE) 4,745 11.2 1.9°
Sets 19:04:42 0° 151° (SSE) 5,532 11.4 1.3°
